Temp
-16 -16 -16 -15 -15 -16 -16 -14 -15 -15 -15 -14 -15 -15 -15 -15 -15 -15 -16 -16 -15 -15 -16 -16 -16 -16 -16 -17 -17 -18 -18 -18 -18 -18 -19 -21 -22 -24
-17 -16 -17 -16 -16 -16 -15 -15 -15 -15 -15 -15 -16 -15 -15 -16 -16 -16 -16 -16 -16 -16 -16 -16 -17 -17 -18 -18 -18 -19 -19 -19 -19 -20 -22 -24 -25 -26
-16 -17 -17 -17 -16 -15 -15 -15 -15 -15 -16 -16 -16 -16 -16 -16 -16 -16 -17 -17 -17 -17 -17 -17 -18 -19 -19 -19 -20 -20 -20 -20 -21 -24 -26 -27 -28 -29
-16 -16 -16 -16 -16 -16 -15 -15 -16 -16 -16 -16 -16 -17 -17 -17 -17 -17 -17 -17 -17 -18 -18 -19 -19 -19 -19 -20 -20 -20 -20 -22 -25 -27 -29 -29 -30 -30
-16 -16 -16 -16 -16 -16 -16 -16 -16 -16 -16 -17 -17 -17 -17 -17 -17 -17 -18 -18 -18 -19 -19 -20 -20 -20 -20 -21 -20 -21 -23 -26 -27 -29 -30 -30 -31 -31
-16 -16 -16 -16 -16 -16 -17 -17 -17 -17 -17 -17 -17 -17 -17 -18 -18 -18 -19 -19 -19 -20 -20 -20 -20 -21 -21 -21 -22 -25 -26 -28 -29 -30 -30 -31 -31 -31
-17 -17 -16 -16 -16 -16 -17 -17 -18 -18 -18 -18 -18 -18 -18 -18 -19 -19 -19 -19 -20 -20 -21 -21 -21 -21 -21 -23 -25 -27 -29 -30 -30 -30 -30 -31 -31 -31
-17 -17 -17 -17 -17 -18 -18 -18 -18 -18 -18 -18 -18 -18 -19 -19 -19 -19 -20 -20 -21 -21 -21 -21 -21 -22 -23 -25 -27 -29 -30 -30 -30 -31 -31 -31 -31 -31
-18 -18 -17 -17 -18 -18 -18 -19 -18 -18 -18 -18 -19 -19 -19 -20 -20 -21 -21 -21 -21 -21 -22 -22 -22 -24 -26 -27 -29 -30 -31 -31 -31 -31 -31 -31 -31 -32
-18 -18 -18 -18 -18 -19 -19 -19 -19 -19 -19 -19 -20 -20 -20 -21 -21 -21 -22 -22 -22 -22 -22 -22 -24 -26 -29 -30 -31 -31 -31 -31 -31 -31 -31 -31 -31 -32
-18 -18 -18 -19 -19 -19 -19 -19 -19 -19 -19 -20 -20 -20 -21 -21 -22 -22 -22 -23 -22 -23 -23 -25 -27 -27 -30 -32 -32 -31 -31 -31 -31 -31 -31 -31 -32 -31
-19 -19 -19 -19 -19 -19 -19 -19 -19 -20 -20 -20 -21 -21 -21 -22 -23 -23 -23 -23 -23 -24 -26 -27 -28 -29 -30 -32 -32 -31 -31 -31 -31 -31 -31 -32 -32 -31
-19 -19 -19 -19 -19 -19 -19 -20 -20 -20 -21 -21 -21 -22 -23 -23 -23 -23 -23 -23 -24 -26 -27 -28 -29 -30 -31 -30 -31 -31 -31 -31 -31 -31 -32 -32 -32 -31
-19 -19 -19 -19 -20 -20 -20 -20 -20 -20 -20 -21 -22 -23 -23 -23 -23 -24 -24 -25 -26 -28 -29 -30 -30 -31 -31 -31 -31 -31 -31 -31 -31 -31 -32 -32 -31 -31
-19 -19 -20 -20 -20 -20 -20 -20 -20 -20 -21 -22 -23 -23 -23 -24 -24 -25 -26 -27 -29 -29 -30 -30 -31 -31 -31 -31 -31 -31 -31 -32 -32 -32 -32 -31 -31 -31
-19 -20 -20 -20 -20 -20 -20 -20 -21 -22 -23 -23 -24 -24 -24 -24 -25 -26 -28 -29 -30 -31 -31 -31 -31 -31 -31 -31 -31 -31 -31 -31 -32 -32 -32 -31 -31 -31
-20 -20 -20 -20 -20 -20 -21 -21 -22 -23 -23 -24 -24 -24 -24 -25 -27 -29 -29 -30 -30 -31 -31 -31 -31 -31 -31 -31 -31 -31 -31 -31 -31 -32 -32 -31 -31 -32
-20 -20 -21 -21 -21 -21 -22 -22 -23 -23 -24 -24 -24 -24 -26 -27 -29 -30 -30 -31 -31 -31 -31 -31 -31 -31 -31 -31 -31 -31 -31 -31 -31 -32 -31 -31 -31 -32
-20 -21 -21 -21 -21 -22 -22 -23 -23 -24 -24 -24 -25 -26 -28 -29 -30 -30 -30 -31 -31 -31 -31 -31 -31 -31 -31 -31 -31 -31 -31 -31 -31 -31 -31 -31 -31 -32
-21 -21 -21 -21 -22 -23 -23 -24 -24 -24 -24 -25 -26 -28 -29 -30 -31 -31 -31 -32 -31 -31 -31 -31 -31 -31 -31 -31 -31 -31 -31 -31 -31 -31 -31 -30 -31 -32
-22 -22 -22 -22 -23 -23 -24 -24 -24 -25 -25 -26 -28 -29 -30 -31 -31 -31 -32 -32 -31 -31 -31 -31 -31 -31 -31 -31 -31 -31 -31 -31 -31 -31 -31 -31 -31 -32
-22 -22 -23 -23 -24 -24 -24 -24 -25 -25 -26 -28 -29 -30 -31 -31 -32 -32 -32 -32 -31 -31 -31 -31 -31 -31 -31 -31 -31 -31 -31 -31 -31 -31 -31 -31 -31 -31
-23 -23 -24 -24 -24 -24 -25 -25 -25 -26 -28 -29 -30 -31 -31 -32 -32 -32 -32 -32 -31 -31 -31 -31 -31 -31 -31 -31 -31 -31 -31 -31 -31 -31 -31 -31 -31 -31
Height
5720 5721 5723 5723 5722 5721 5722 5722 5720 5718 5715 5711 5709 5706 5701 5697 5692 5686 5681 5674 5668 5661 5654 5645 5637 5628 5620 5609 5598 5588 5578 5565 5553 5539 5525 5509 5496 5486
5705 5707 5709 5708 5709 5709 5710 5710 5708 5705 5703 5701 5696 5693 5689 5684 5678 5672 5667 5660 5653 5645 5637 5628 5619 5609 5600 5589 5579 5566 5554 5541 5527 5512 5499 5488 5477 5468
5691 5693 5696 5696 5698 5702 5700 5698 5697 5695 5693 5689 5684 5681 5676 5672 5665 5659 5654 5647 5639 5630 5622 5612 5602 5593 5583 5572 5559 5545 5531 5518 5502 5489 5478 5469 5460 5452
5687 5689 5689 5690 5692 5692 5692 5690 5688 5685 5682 5676 5672 5668 5664 5660 5654 5648 5641 5634 5624 5613 5604 5595 5585 5574 5561 5551 5537 5524 5509 5495 5482 5470 5461 5455 5447 5439
5678 5678 5679 5680 5683 5683 5682 5680 5677 5674 5669 5665 5660 5655 5651 5646 5639 5632 5625 5616 5606 5596 5585 5577 5565 5554 5544 5530 5517 5501 5488 5475 5466 5456 5450 5443 5436 5429
5673 5674 5674 5675 5674 5673 5672 5670 5666 5662 5658 5654 5651 5644 5639 5632 5626 5619 5609 5601 5591 5580 5567 5557 5548 5536 5525 5511 5496 5479 5468 5460 5452 5445 5438 5432 5425 5418
5669 5669 5667 5666 5666 5664 5661 5658 5655 5650 5647 5643 5639 5632 5626 5618 5611 5604 5596 5586 5574 5566 5554 5538 5530 5516 5503 5489 5475 5464 5454 5447 5441 5434 5427 5420 5413 5407
5662 5662 5660 5659 5657 5653 5650 5647 5643 5641 5636 5631 5625 5619 5612 5604 5596 5589 5581 5571 5561 5548 5541 5524 5513 5497 5483 5471 5460 5451 5443 5436 5429 5422 5415 5408 5402 5395
5654 5653 5651 5649 5647 5644 5640 5638 5634 5628 5623 5618 5612 5606 5598 5591 5583 5572 5561 5551 5541 5533 5528 5509 5496 5479 5465 5456 5446 5440 5433 5426 5419 5412 5404 5397 5390 5383
5646 5645 5643 5640 5638 5635 5633 5629 5625 5619 5613 5606 5600 5593 5585 5575 5568 5558 5548 5537 5525 5510 5505 5493 5477 5465 5450 5441 5435 5430 5423 5416 5409 5401 5394 5387 5379 5373
5638 5636 5635 5633 5629 5627 5622 5616 5612 5606 5600 5594 5587 5580 5570 5560 5551 5542 5532 5524 5511 5493 5482 5471 5458 5454 5442 5431 5424 5419 5413 5406 5399 5390 5384 5377 5369 5364
5629 5629 5626 5624 5620 5616 5611 5606 5601 5596 5590 5582 5575 5567 5557 5546 5538 5527 5518 5505 5492 5482 5464 5459 5446 5437 5438 5429 5417 5410 5404 5395 5388 5381 5374 5368 5361 5356
5623 5620 5617 5615 5610 5605 5601 5597 5590 5584 5576 5569 5561 5551 5542 5532 5521 5510 5497 5486 5474 5462 5452 5444 5437 5429 5422 5418 5411 5401 5394 5387 5380 5374 5367 5360 5354 5347
5616 5613 5610 5606 5601 5597 5592 5585 5577 5571 5563 5555 5545 5536 5526 5516 5504 5492 5480 5468 5458 5451 5442 5433 5427 5420 5415 5409 5403 5395 5386 5377 5372 5367 5361 5354 5348 5341
5606 5603 5601 5597 5592 5585 5579 5574 5567 5559 5551 5541 5531 5521 5512 5501 5489 5477 5466 5457 5446 5439 5432 5425 5418 5413 5406 5400 5394 5386 5381 5373 5366 5361 5355 5349 5343 5336
5599 5596 5591 5585 5580 5577 5571 5563 5555 5546 5535 5526 5517 5506 5496 5486 5476 5466 5456 5448 5439 5429 5423 5417 5411 5406 5400 5393 5386 5380 5373 5368 5363 5357 5351 5345 5338 5331
5589 5586 5582 5578 5574 5566 5557 5548 5539 5530 5522 5513 5504 5494 5484 5473 5463 5454 5447 5439 5432 5426 5419 5412 5405 5399 5392 5388 5381 5373 5368 5362 5357 5353 5347 5341 5335 5328
5582 5578 5573 5567 5560 5552 5544 5535 5527 5519 5511 5502 5492 5481 5471 5462 5453 5445 5438 5432 5426 5420 5414 5408 5401 5394 5386 5378 5376 5369 5363 5358 5354 5349 5344 5339 5333 5326
5573 5567 5562 5555 5548 5540 5532 5524 5516 5508 5499 5489 5479 5469 5459 5451 5445 5438 5431 5425 5420 5414 5408 5402 5396 5391 5386 5378 5371 5367 5360 5356 5351 5346 5343 5338 5332 5326
5561 5556 5549 5542 5534 5527 5520 5512 5504 5495 5486 5476 5466 5457 5450 5443 5437 5430 5424 5419 5414 5409 5403 5397 5392 5386 5381 5376 5369 5363 5358 5353 5349 5345 5341 5337 5333 5327
5549 5543 5536 5529 5522 5515 5508 5500 5492 5483 5473 5463 5455 5447 5441 5434 5428 5423 5418 5414 5409 5404 5398 5393 5387 5382 5376 5371 5366 5360 5356 5352 5348 5344 5341 5337 5333 5329
5537 5531 5524 5518 5511 5504 5496 5487 5478 5469 5460 5452 5445 5439 5432 5426 5421 5416 5413 5409 5404 5399 5395 5390 5385 5380 5374 5369 5364 5360 5355 5351 5347 5344 5341 5337 5335 5332
5526 5519 5513 5506 5499 5491 5483 5474 5466 5457 5449 5442 5436 5430 5424 5419 5415 5412 5409 5405 5401 5396 5392 5387 5382 5377 5373 5368 5363 5358 5354 5350 5346 5343 5341 5338 5336 5334
Wind_Speed
58 61 60 64 66 65 64 62 51 53 45 42 42 46 50 53 56 57 59 62 64 66 69 71 74 77 79 80 81 84 87 92 96 97 95 89 83 75
64 64 62 66 67 68 62 52 51 39 40 42 48 53 54 57 57 58 60 62 66 68 70 72 74 76 78 79 83 86 92 96 96 90 81 72 64 60
69 65 64 62 67 53 47 39 36 38 47 51 55 51 52 58 58 59 62 65 67 69 71 72 75 75 79 82 85 90 93 92 85 74 63 56 54 52
48 51 54 54 53 35 35 39 41 45 50 50 47 48 53 55 58 61 64 66 68 69 71 72 74 78 81 84 88 88 87 79 68 57 52 50 48 45
38 36 37 37 29 30 37 43 46 53 49 47 48 50 53 55 58 62 65 67 69 70 73 74 77 80 83 84 86 84 75 64 56 49 47 46 43 41
13 15 19 25 31 39 43 45 46 44 44 47 51 53 54 56 59 61 64 66 68 70 74 77 79 81 82 83 79 70 62 53 48 46 46 45 41 39
17 21 26 29 31 35 40 41 41 41 44 48 51 53 56 59 60 62 63 67 70 70 74 78 77 80 81 75 67 58 50 48 46 47 45 45 43 41
26 28 28 32 35 35 36 35 37 43 46 50 53 56 57 60 61 64 66 68 69 73 73 76 76 79 74 65 56 47 44 45 45 43 43 43 43 42
31 31 34 37 36 33 33 39 42 44 48 51 54 55 58 59 62 65 67 69 72 73 70 73 75 71 64 56 47 41 42 42 40 40 41 42 42 41
37 40 38 30 30 33 36 40 44 46 48 48 52 55 58 60 64 65 67 68 71 74 71 71 69 62 52 47 42 40 39 39 40 42 42 42 42 38
37 33 29 31 33 35 38 40 44 47 50 52 55 58 61 63 64 66 66 67 68 70 71 65 59 52 40 41 43 42 40 42 41 42 41 41 40 35
24 27 28 31 33 36 37 41 44 47 50 54 57 59 61 61 60 62 65 67 69 66 63 55 49 43 33 33 41 42 41 44 42 40 39 40 37 34
25 27 29 30 32 36 38 42 47 51 54 56 57 58 59 59 62 65 68 68 65 60 56 49 40 37 37 34 37 41 42 40 36 36 36 38 34 35
25 26 28 30 33 36 41 45 49 53 57 60 60 60 60 62 64 67 67 63 58 52 47 42 37 36 36 37 36 36 39 38 34 34 34 35 33 35
25 27 29 31 36 41 46 51 55 57 57 58 59 59 61 63 66 65 60 53 49 45 41 37 36 37 38 37 36 37 34 33 32 32 33 31 30 34
26 28 32 37 42 46 51 54 55 56 56 57 59 61 64 66 65 58 49 46 41 41 38 37 38 38 37 37 35 34 32 29 27 28 29 28 32 34
30 34 38 42 46 50 52 54 55 56 57 59 60 63 66 63 55 49 45 42 37 34 35 36 37 38 38 33 31 32 28 29 25 25 25 27 31 31
35 39 42 46 49 51 53 53 54 56 58 60 63 64 62 54 46 43 42 38 35 34 33 34 34 34 35 37 31 30 29 26 24 23 23 25 29 28
38 42 45 48 51 52 52 53 55 57 59 62 64 62 53 46 42 41 40 34 34 33 33 33 31 30 30 31 32 27 26 24 22 22 21 23 25 24
41 44 47 50 50 50 52 54 56 58 61 64 61 52 45 43 41 40 35 31 31 32 32 30 30 31 30 26 25 26 24 23 22 20 19 20 21 21
43 46 47 49 50 52 53 55 58 60 63 61 52 46 44 42 39 35 29 29 29 30 29 29 29 28 27 26 24 24 22 20 19 18 17 17 18 17
45 47 48 48 50 52 54 57 60 62 60 52 46 44 41 37 33 30 25 27 28 28 28 27 25 25 25 25 22 20 19 19 17 16 14 15 16 14
46 47 48 50 52 54 56 59 61 59 53 47 45 40 36 32 28 24 22 25 25 25 25 24 24 23 21 21 21 20 17 16 15 14 12 12 12 12
Wind_Direction
249 250 254 260 262 263 267 276 283 288 278 275 279 284 286 287 287 290 293 295 296 298 298 299 300 300 300 300 301 301 303 303 302 302 299 295 292 293
246 248 250 255 261 264 274 283 275 265 269 275 282 286 288 290 291 293 295 298 297 297 298 300 300 300 302 303 303 303 305 305 304 300 296 294 296 297
246 248 250 254 261 280 275 260 259 267 274 281 288 286 292 293 295 296 298 298 299 299 301 302 302 304 303 305 305 307 306 305 301 297 299 303 303 303
261 263 267 270 272 260 263 263 268 276 282 287 289 294 294 294 298 299 299 298 300 302 302 303 305 305 306 306 307 308 307 302 300 303 305 306 305 306
258 261 262 259 256 265 271 275 278 282 284 291 293 293 293 297 298 299 300 302 303 304 305 307 308 309 307 309 310 308 303 304 303 306 306 305 305 308
241 244 247 254 265 269 274 280 284 287 290 293 294 296 299 300 300 301 303 304 305 307 307 308 309 308 308 312 309 306 305 304 304 304 303 303 302 304
265 272 274 274 274 279 280 281 285 289 294 294 296 300 301 303 304 304 304 304 305 308 310 310 310 312 313 311 306 304 304 304 303 303 302 301 299 300
270 280 275 274 279 281 283 290 295 297 298 299 301 302 305 306 305 305 304 306 309 311 311 309 312 313 311 307 305 304 303 305 304 304 304 303 298 297
287 287 286 284 283 286 295 297 297 299 302 304 304 307 305 305 304 309 311 311 310 308 310 313 316 311 307 306 305 305 307 308 308 308 309 308 304 296
280 285 286 287 295 297 297 299 302 305 306 307 307 307 308 309 310 311 310 310 310 311 315 317 314 312 307 307 307 308 309 309 310 309 309 310 309 300
279 280 290 296 297 300 303 307 309 312 312 311 310 310 311 310 311 311 312 311 315 316 317 316 313 313 308 307 309 312 310 310 311 311 310 312 312 305
281 289 294 298 302 306 311 314 314 312 311 311 311 311 312 312 311 312 313 317 319 318 316 316 312 311 309 305 307 310 311 310 311 312 311 314 314 309
292 295 301 303 311 314 315 315 317 315 315 316 316 315 314 314 316 317 320 321 320 319 318 319 316 314 315 314 313 312 314 314 312 313 312 316 315 313
295 301 305 310 313 317 318 319 320 320 320 319 317 316 317 318 319 321 322 320 319 320 320 319 318 317 317 318 318 315 320 319 315 316 316 319 319 321
303 308 309 312 317 320 320 321 321 321 319 318 318 319 319 321 323 322 321 319 321 321 321 320 321 321 322 323 322 319 320 320 316 318 318 319 324 327
301 305 311 317 319 316 317 320 321 321 320 320 319 320 321 323 322 321 320 321 321 321 323 324 324 324 324 325 324 324 322 323 318 318 319 324 331 331
308 311 311 310 311 316 320 323 323 322 320 320 320 322 323 322 320 319 320 322 321 321 322 323 325 325 325 328 325 325 326 328 325 323 326 331 334 337
306 306 309 314 317 320 322 323 321 320 320 321 322 322 321 320 318 320 322 321 320 321 323 325 326 327 328 329 337 331 331 331 328 328 332 335 339 343
308 311 313 316 319 321 322 321 320 320 321 323 323 321 320 319 318 320 321 318 321 323 325 327 327 327 327 326 327 333 331 332 332 333 339 339 345 351
310 312 314 317 319 319 318 319 320 320 321 322 322 320 319 317 318 319 319 319 322 323 326 327 327 328 330 330 329 330 333 335 338 337 339 343 352 360
310 312 314 316 317 317 318 318 319 320 322 321 320 319 317 317 318 319 317 321 323 325 327 329 331 332 334 336 336 336 339 339 339 340 341 347 358 9
310 312 314 314 315 317 317 318 320 320 320 319 318 317 316 317 317 318 317 321 324 326 328 331 333 335 338 339 341 342 339 341 342 343 347 351 2 20
310 311 312 314 316 317 318 319 318 318 317 317 316 316 316 316 316 316 317 321 325 327 330 333 334 336 336 341 345 346 348 346 347 348 353 358 7 25